Tracking 19920 objects as of 15-Oct-2019
HD Live streaming from Space Station
objects crossing your sky now

COSMOS 1275 DEB

Track COSMOS 1275 DEB now!
10-day predictions


NORAD ID: 42201
Int'l Code: 1981-053TR
Perigee: 815.6 km
Apogee: 884.6 km
Inclination: 82.7 °
Period: 101.8 minutes
Semi major axis: 7221 km
RCS: Unknown
Launch date: June 4, 1981
Source: Commonwealth of Independent States (former USSR) (CIS)
Launch site: PLESETSK MISSILE AND SPACE COMPLEX (PKMTR)

Note: This is SATELLITE DEBRIS
aabbcc
Your satellite tracking list
Your tracking list is empty




NASA's NSSDC Master Catalog

Two Line Element Set (TLE):
1 42201U 81053TR  19287.56209023 +.00000935 +00000-0 +47127-3 0  9991
2 42201 082.7108 019.7341 0047783 063.9764 296.6322 14.14815623304547
Source of the keplerian elements: AFSPC